Location: Key Biscayne
(25.6930°N, 80.1630°W)
Time: 01:41:00
(UTC-05:00)

N. Korean satellite - Pass Details

Date: 14 November 2017
Orbit: 460 x 514 km, 97.2° (Epoch: 20 November)

Event Time Altitude Azimuth Distance (km) Brightness Sun altitude
Rises 18:42:08 0° 176° (S) 2,467 10.3 -15.9°
Reaches altitude 10° 18:44:11 10° 180° (S) 1,597 9.3 -16.4°
Maximum altitude 18:47:33 57° 260° (W) 547 7.1 -17.1°
Drops below altitude 10° 18:50:58 10° 340° (NNW) 1,616 9.3 -17.9°
Sets 18:53:03 0° 344° (NNW) 2,501 10.2 -18.3°
